[[[{"header":{"parameterUnit":"kt","parameterCategory":2,"dx":1,"dy":1,"la1":30.253999710083008,"la2":30.299108505249023,"lo1":-89.0895004272461,"lo2":-89.04439544677734,"nx":28,"ny":28,"refTime":"2022-10-23T21:00:00:Z","depth":0,"parameterNumber":1,"parameterNumberName":"U-component_of_WINDS"},"data":[-8.803,-8.8145,-8.8151,-8.8285,-8.8313,-8.8405,-8.844,-8.8485,-8.8522,-8.8633,-8.8698,-8.8715,-8.8753,-8.8831,-8.89,-8.8905,-8.8933,-8.8972,-8.8971,-8.8794,-8.8769,-8.8746,-8.8717,-8.8979,-8.898,-8.9151,-8.9153,-8.9154,-8.7908,-8.7937,-8.8009,-8.8082,-8.8144,-8.8112,-8.8167,-8.822,-8.8303,-8.8349,-8.8412,-8.8509,-8.8586,-8.861,-8.8684,-8.8738,-8.8724,-8.8757,-8.875,-8.8756,-8.8569,-8.8539,-8.8767,-8.8767,-8.8767,-8.8767,-8.8767,-8.8767,-8.7685,-8.7754,-8.78,-8.7877,-8.7915,-8.7964,-8.803,-8.8047,-8.8117,-8.8194,-8.8185,-8.8278,-8.8323,-8.8412,-8.8442,-8.8515,-8.8477,-8.8513,-8.8522,-8.853,-8.8539,-8.8289,-8.8528,-8.8527,-8.8527,-8.8526,-8.8526,0,-8.7522,-8.7522,-8.7589,-8.766,-8.7716,-8.777,-8.7819,-8.7861,-8.7856,-8.7913,-8.7996,-8.8044,-8.814,-8.8216,-8.8285,-8.8308,-8.8273,-8.8271,-8.8295,-8.8297,-8.8294,-8.8295,-8.7986,-8.8261,-8.8259,-8.8257,-8.8256,-8.8255,-8.7294,-8.7373,-8.7422,-8.7469,-8.7496,-8.7572,-8.7617,-8.7607,-8.7656,-8.7715,-8.7775,-8.7853,-8.7913,-8.8044,-8.8058,-8.8128,-8.811,-8.8216,-8.812,-8.8123,-8.8108,-8.8102,-8.8109,-8.8231,-8.8235,-8.8237,-8.8239,0,-8.7166,-8.717,-8.7292,-8.733,-8.7342,-8.7425,-8.7457,-8.7524,-8.7531,-8.7624,-8.7645,-8.7654,-8.7734,-8.7731,-8.7821,-8.7817,-8.7955,-8.7938,-8.794,-8.7935,-8.8026,-8.8016,-8.8328,-8.8367,-8.8099,-8.8102,-8.8104,0,-8.697,-8.7074,-8.7072,-8.7142,-8.7258,-8.7242,-8.7356,-8.7372,-8.7408,-8.748,-8.7442,-8.751,-8.7495,-8.7564,-8.7557,-8.767,-8.7687,-8.7688,-8.7684,-8.7689,-8.7688,-8.7708,-8.7693,-8.7675,-8.7674,-8.7672,-8.7671,0,-8.6764,-8.6883,-8.6999,-8.7025,-8.7073,-8.7128,-8.715,-8.7188,-8.7231,-8.7287,-8.7315,-8.7382,-8.7417,-8.747,-8.7459,-8.7394,-8.7596,-8.7505,-8.7597,-8.7597,-8.7636,-8.7632,-8.7915,-8.7669,-8.7669,-8.7668,-8.7668,0,-8.6603,-8.666,-8.6827,-8.6865,-8.6896,-8.6971,-8.7034,-8.7098,-8.7141,-8.714,-8.7184,-8.7154,-8.7252,-8.7162,-8.7296,-8.7214,-8.7252,-8.7263,-8.7269,-8.7271,-8.7168,-8.7323,-8.7597,-8.7623,-8.7284,-8.7281,-8.7278,0,-8.6366,-8.6533,-8.6518,-8.6676,-8.6751,-8.67,-8.6784,-8.6821,-8.6827,-8.6892,-8.6899,-8.6972,-8.6904,-8.6925,-8.6993,-8.7,-8.7108,-8.6987,-8.7077,-8.7081,-8.7064,-8.7318,-8.7356,-8.7539,-8.7237,-8.7241,-8.7244,0,-8.6179,-8.6233,-8.6262,-8.629,-8.6335,-8.6397,-8.6495,-8.6562,-8.6606,-8.6652,-8.673,-8.6834,-8.6786,-8.6821,-8.6801,-8.6872,-8.7035,-8.6809,-8.6809,-8.6847,-8.7216,-8.7253,-8.7284,-8.7007,-8.7012,-8.7016,-8.7212,0,-8.5932,-8.6013,-8.6092,-8.6154,-8.6201,-8.6298,-8.6289,-8.634,-8.6317,-8.6318,-8.6435,-8.646,-8.6526,-8.656,-8.6536,-8.6699,-8.6669,-8.6616,-8.652,-8.6689,-8.6753,-8.6779,-8.6427,-8.6424,-8.6422,-8.642,0,0,-8.5701,-8.5816,-8.5792,-8.5883,-8.592,-8.586,-8.5965,-8.5994,-8.6053,-8.608,-8.6029,-8.6176,-8.6197,-8.6338,-8.639,-8.6417,-8.6445,-8.6384,-8.661,-8.6631,-8.6651,-8.6719,-8.6747,-8.6416,-8.6415,-8.6414,-8.6413,0,-8.5606,-8.5631,-8.5734,-8.5764,-8.5805,-8.5801,-8.5827,-8.5855,-8.586,-8.5972,-8.5917,-8.5986,-8.6101,-8.6131,-8.6161,-8.637,-8.6321,-8.6392,-8.6506,-8.6586,-8.6611,-8.6632,-8.6705,-8.6732,-8.6407,-8.6408,-8.6408,0,-8.5418,-8.544,-8.5488,-8.5569,-8.5594,-8.5671,-8.5572,-8.5657,-8.5714,-8.5638,-8.5749,-8.576,-8.5798,-8.5933,-8.5992,-8.5946,-8.621,-8.6124,-8.6139,-8.6143,-8.6219,-8.6249,-8.6275,-8.5929,-8.5927,-8.5926,0,0,-8.5336,-8.5411,-8.5426,-8.5546,-8.5567,-8.556,-8.5599,-8.5576,-8.5611,-8.5625,-8.5637,-8.5672,-8.5739,-8.5783,-8.5845,-8.5995,-8.5999,-8.6065,-8.6088,-8.6106,-8.6121,-8.6202,-8.6231,-8.5919,-8.5919,-8.5919,0,0,-8.5296,-8.5318,-8.5286,-8.5425,-8.5462,-8.5482,-8.5556,-8.5517,-8.557,-8.5556,-8.5521,-8.5529,-8.5654,-8.5666,-8.5586,-8.581,-8.5717,-8.5736,-8.5796,-8.5824,-8.5846,-8.5838,-8.5482,0,0,0,0,0,-8.519,-8.5316,-8.5287,-8.5308,-8.5406,-8.5499,-8.5511,-8.5485,-8.542,-8.548,-8.5484,-8.5429,-8.5616,-8.5545,-8.5566,-8.5652,-8.5841,-8.5855,-8.5868,-8.598,-8.601,-8.6035,0,0,0,0,0,0,-8.5198,-8.5224,-8.5283,-8.531,-8.5331,-8.5494,-8.5379,-8.5375,-8.5413,-8.5401,-8.5431,-8.543,-8.5408,-8.5532,-8.5551,-8.5634,-8.5476,-8.5846,-8.5858,-8.5869,-8.599,-8.6015,-8.6036,0,0,0,0,0,-8.5204,-8.5225,-8.5389,-8.5308,-8.5327,-8.5322,-8.5374,-8.537,-8.5398,-8.5402,-8.54,-8.5375,-8.5411,-8.5426,-8.5543,-8.5626,-8.5462,-8.5469,-8.5854,-8.5863,-8.5872,-8.6002,0,0,0,0,0,0,-8.5209,-8.5222,-8.5392,-8.5397,-8.5256,-8.5312,-8.532,-8.5366,-8.5396,-8.5395,-8.5344,-8.5334,-8.5415,-8.5426,-8.5437,-8.5625,-8.5451,-8.5458,-8.5463,-8.5861,-8.5868,-8.5875,0,0,0,0,0,0,-8.521,-8.5226,-8.5394,-8.5332,-8.5329,-8.5304,-8.5311,-8.5405,-8.5397,-8.5336,-8.5329,-8.5339,-8.5397,-8.5426,-8.5435,-8.5584,-8.5442,-8.5449,-8.5454,-8.5458,-8.5867,-8.5873,0,0,0,0,0,0,-8.5216,-8.523,-8.533,-8.5328,-8.5325,-8.5377,-8.5386,-8.5488,-8.5345,-8.5335,-8.5331,-8.5325,-8.54,-8.5408,-8.5434,-8.558,-8.5583,-8.5443,-8.5447,-8.5451,-8.5453,0,0,0,0,0,0,0,-8.5221,-8.5136,-8.5364,-8.5325,-8.5322,-8.5441,-8.5442,-8.5444,-8.5344,-8.5338,-8.5333,-8.5328,-8.5401,-8.5409,-8.5417,-8.5576,0,0,-8.5442,-8.5445,0,0,0,0,0,0,0,0,-8.513,-8.5134,-8.5364,-8.5365,-8.5366,-8.5441,-8.5442,-8.5443,-8.5343,-8.5338,-8.5334,-8.533,-8.5404,-8.541,-8.5416,0,0,0,0,0,0,0,0,0,0,0,0,0,0,0,-8.5364,-8.5365,0,-8.5441,-8.5442,-8.5443,-8.5342,-8.5338,-8.5335,-8.5331,-8.5405,-8.5411,-8.5416,0,0,0,0,0,0,0,0,0,0,0,0,0,0,0,0,0,0,0,0,0,0,0,0,0,0,0,0,0,0,0,0,0,0,0,0,0,0,0,0,0,0,0,0,0,0,0,0,0,0,0,0,0,0,0,0,0,0,0,0,0,0,0,0,0,0,0,0,0]}],[{"header":{"parameterUnit":"kt","parameterCategory":2,"dx":1,"dy":1,"la1":30.253999710083008,"la2":30.299108505249023,"lo1":-89.0895004272461,"lo2":-89.04439544677734,"nx":28,"ny":28,"refTime":"2022-10-23T21:00:00:Z","depth":0,"parameterNumber":2,"parameterNumberName":"V-component_of_WINDS"},"data":[4.8888,4.8865,4.8892,4.8877,4.8898,4.8892,4.8898,4.8907,4.8921,4.8915,4.8916,4.8937,4.8959,4.8964,4.8964,4.8973,4.8971,4.8946,4.8961,4.9054,4.9069,4.9083,4.9091,4.8945,4.8945,4.8861,4.886,4.8859,4.8958,4.8979,4.8978,4.8996,4.8996,4.9037,4.9052,4.9049,4.9041,4.9057,4.9059,4.9054,4.9053,4.9083,4.9085,4.9074,4.9092,4.9072,4.9074,4.9076,4.9177,4.9186,4.9058,4.9058,4.9058,4.9058,4.9058,4.9058,4.9092,4.9077,4.9104,4.9103,4.9118,4.9129,4.9118,4.9146,4.9144,4.9152,4.918,4.9171,4.919,4.9203,4.9212,4.9205,4.923,4.9215,4.9212,4.9208,4.9201,4.9322,4.9206,4.9206,4.9206,4.9207,4.9207,0,4.9199,4.9222,4.9223,4.9232,4.9233,4.9241,4.9253,4.9247,4.9301,4.9296,4.9292,4.9293,4.9294,4.9291,4.9297,4.931,4.9349,4.9355,4.9345,4.9332,4.9321,4.9328,4.9493,4.9357,4.9359,4.936,4.936,4.9361,4.9338,4.9316,4.9355,4.9352,4.9366,4.9359,4.936,4.941,4.9408,4.9428,4.941,4.9408,4.9409,4.9394,4.9423,4.9422,4.9441,4.9387,4.9441,4.943,4.9442,4.9443,4.9442,4.9376,4.9374,4.9372,4.9371,0,4.9414,4.9456,4.9431,4.947,4.948,4.9454,4.9487,4.9472,4.9499,4.9482,4.9481,4.9523,4.9516,4.9554,4.9551,4.9571,4.9527,4.9545,4.9522,4.9528,4.9485,4.9488,4.9335,4.9318,4.9468,4.9467,4.9466,0,4.9549,4.9518,4.9583,4.9566,4.9533,4.9584,4.9549,4.957,4.9588,4.9575,4.9627,4.9613,4.9663,4.9654,4.9683,4.9653,4.9652,4.9666,4.9674,4.9661,4.966,4.966,4.9667,4.9691,4.9692,4.9693,4.9693,0,4.9665,4.9661,4.9634,4.964,4.9677,4.9662,4.9677,4.9697,4.9696,4.9701,4.9701,4.9701,4.9701,4.97,4.9738,4.9773,4.9702,4.9758,4.9716,4.9715,4.9697,4.9698,4.9553,4.9694,4.9694,4.9695,4.9695,0,4.978,4.9787,4.974,4.9774,4.977,4.975,4.9757,4.9749,4.9765,4.9784,4.9787,4.9825,4.9802,4.9855,4.9824,4.9859,4.9856,4.9867,4.9864,4.9864,4.9923,4.9837,4.9694,4.9681,4.9865,4.9866,4.9868,0,4.9902,4.9865,4.9909,4.9862,4.985,4.9912,4.9891,4.9904,4.9926,4.9918,4.9942,4.9931,4.9978,4.998,4.9959,4.9982,4.9935,4.9989,4.9974,4.9973,4.997,4.984,4.981,4.9722,4.9886,4.9884,4.9883,0,5.0001,5.0049,5.0037,5.0046,5.0073,5.0062,5.0037,5.0039,5.0032,5.0039,5.0019,5.0002,5.0039,5.0039,5.007,5.0046,4.9968,5.0087,5.0088,5.0065,4.9898,4.987,4.9855,4.9994,4.9992,4.999,4.9898,0,5.0169,5.0155,5.0125,5.0142,5.014,5.0111,5.0155,5.0147,5.0178,5.0202,5.0172,5.0189,5.0187,5.0179,5.0207,5.0141,5.0157,5.0195,5.0248,5.0162,5.0133,5.0121,5.0289,5.0291,5.0293,5.0294,0,0,5.0275,5.0257,5.0305,5.0284,5.0285,5.0349,5.0315,5.0322,5.0335,5.0334,5.0365,5.0344,5.0355,5.0313,5.0289,5.0287,5.0279,5.0306,5.0203,5.0192,5.0183,5.0151,5.0137,5.0296,5.0297,5.0298,5.0298,0,5.0346,5.0362,5.0329,5.034,5.0359,5.0387,5.0379,5.0407,5.042,5.039,5.0441,5.0426,5.0405,5.0413,5.0413,5.0314,5.0351,5.0309,5.0243,5.0216,5.0204,5.0193,5.0159,5.0146,5.0302,5.0301,5.0301,0,5.0453,5.0476,5.0464,5.0471,5.0483,5.0467,5.0536,5.0516,5.0504,5.057,5.0539,5.0553,5.0564,5.0518,5.0498,5.0525,5.0414,5.0454,5.0446,5.0444,5.042,5.0405,5.0392,5.0567,5.0568,5.0568,0,0,5.0508,5.0495,5.0534,5.0489,5.0493,5.0534,5.0529,5.056,5.0571,5.0575,5.0594,5.0601,5.059,5.0581,5.0572,5.0515,5.0521,5.0486,5.0473,5.0463,5.0455,5.0428,5.0413,5.0571,5.0571,5.0571,0,0,5.0533,5.0578,5.0609,5.0562,5.0573,5.0606,5.0576,5.0613,5.061,5.0618,5.0665,5.0669,5.0626,5.0636,5.0672,5.0592,5.0644,5.0637,5.0586,5.0571,5.0559,5.0557,5.0741,0,0,0,0,0,5.0628,5.0573,5.0601,5.0599,5.0605,5.0591,5.0592,5.0632,5.067,5.0646,5.0668,5.0708,5.0666,5.0698,5.0694,5.0654,5.0609,5.0602,5.0596,5.0518,5.0502,5.0488,0,0,0,0,0,0,5.0628,5.0627,5.0602,5.0632,5.0634,5.0593,5.0667,5.0676,5.0674,5.0682,5.0702,5.0708,5.074,5.0703,5.0699,5.066,5.0743,5.0606,5.0601,5.0596,5.0513,5.0499,5.0488,0,0,0,0,0,5.0628,5.0627,5.0626,5.0633,5.0635,5.0676,5.0669,5.0678,5.0676,5.0709,5.0717,5.0707,5.0738,5.0737,5.0701,5.0661,5.0746,5.0744,5.0603,5.0598,5.0594,5.0506,0,0,0,0,0,0,5.0628,5.0634,5.0627,5.0629,5.0658,5.0679,5.0684,5.0678,5.0704,5.0711,5.0716,5.0723,5.0735,5.0735,5.0734,5.0659,5.0748,5.0747,5.0746,5.0599,5.0596,5.0593,0,0,0,0,0,0,5.0635,5.0635,5.0628,5.0657,5.0662,5.0681,5.0686,5.0659,5.0703,5.071,5.0716,5.0719,5.0736,5.0734,5.0733,5.069,5.075,5.0749,5.0748,5.0747,5.0596,5.0594,0,0,0,0,0,0,5.0635,5.0636,5.0656,5.0661,5.0666,5.0689,5.0658,5.0661,5.0731,5.0707,5.0738,5.0742,5.0733,5.0733,5.0732,5.0689,5.069,5.075,5.0749,5.0748,5.0748,0,0,0,0,0,0,0,5.0636,5.0626,5.0617,5.0664,5.0668,5.0647,5.0647,5.0647,5.0732,5.0735,5.0738,5.074,5.076,5.0758,5.0756,5.0688,0,0,5.075,5.075,0,0,0,0,0,0,0,0,5.0627,5.0627,5.0617,5.0617,5.0618,5.0647,5.0647,5.0647,5.0732,5.0735,5.0737,5.0739,5.0759,5.0758,5.0756,0,0,0,0,0,0,0,0,0,0,0,0,0,0,0,5.0617,5.0617,0,5.0647,5.0647,5.0647,5.0733,5.0735,5.0736,5.0738,5.0759,5.0758,5.0756,0,0,0,0,0,0,0,0,0,0,0,0,0,0,0,0,0,0,0,0,0,0,0,0,0,0,0,0,0,0,0,0,0,0,0,0,0,0,0,0,0,0,0,0,0,0,0,0,0,0,0,0,0,0,0,0,0,0,0,0,0,0,0,0,0,0,0,0,0]}]]]